This is the latest recevied weather packets stored in our database for station/object KD5FHA. If no packets are shown the sender has not sent any weather packets the latest 10 day(s).
| Time | Temp. | Humidity | Pressure | Rain* | Wind** | Luminosity | Snow |
|---|---|---|---|---|---|---|---|
| 1777989300 | 22.78° C | 83% | 1006.1 hPa | 0 mm | - | 173 W/m² | - |
| 1777988996 | 22.78° C | 83% | 1006 hPa | 0 mm | - | 160 W/m² | - |
| 1777988693 | 22.78° C | 84% | 1005.9 hPa | 0 mm | - | 133 W/m² | - |
| 1777988389 | 22.78° C | 84% | 1006 hPa | 0 mm | - | 129 W/m² | - |
| 1777988087 | 22.78° C | 85% | 1005.8 hPa | 0 mm | - | 147 W/m² | - |
| 1777987782 | 22.78° C | 85% | 1005.8 hPa | 0 mm | - | 136 W/m² | - |
| 1777987479 | 22.22° C | 86% | 1005.5 hPa | 0 mm | - | 130 W/m² | - |
| 1777987177 | 22.22° C | 86% | 1005.8 hPa | 0 mm | - | 123 W/m² | - |
| 1777986874 | 21.67° C | 87% | 1005.7 hPa | 0 mm | - | 116 W/m² | - |
| 1777986572 | 21.67° C | 87% | 1006 hPa | 0 mm | - | 80 W/m² | - |
| 1777986270 | 21.67° C | 87% | 1005.8 hPa | 0 mm | - | 80 W/m² | - |
| 1777985967 | 21.67° C | 87% | 1005.8 hPa | 0 mm | - | 77 W/m² | - |
| 1777985664 | 21.67° C | 88% | 1005.7 hPa | 0 mm | - | 77 W/m² | - |
| 1777985360 | 21.67° C | 88% | 1005.8 hPa | 0 mm | - | 70 W/m² | - |
| 1777985057 | 21.11° C | 89% | 1005.7 hPa | 0 mm | - | 81 W/m² | - |
| 1777984754 | 21.11° C | 89% | 1005.5 hPa | 0 mm | - | 60 W/m² | - |
| 1777984450 | 21.11° C | 89% | 1005.5 hPa | 0 mm | - | 49 W/m² | - |
| 1777984146 | 21.11° C | 89% | 1005.3 hPa | 0 mm | - | 39 W/m² | - |
| 1777983844 | 21.11° C | 89% | 1005.4 hPa | 0 mm | - | 33 W/m² | - |
| 1777983540 | 21.11° C | 90% | 1005.2 hPa | 0 mm | - | 31 W/m² | - |
| 1777983237 | 21.11° C | 90% | 1005.3 hPa | 0 mm | - | 26 W/m² | - |
| 1777982933 | 21.11° C | 90% | 1005.1 hPa | 0 mm | - | 20 W/m² | - |
| 1777982629 | 20.56° C | 90% | 1005.1 hPa | 0 mm | - | 16 W/m² | - |
| 1777982328 | 20.56° C | 90% | 1005.1 hPa | 0 mm | - | 12 W/m² | - |
| 1777982025 | 20.56° C | 90% | 1005.2 hPa | 0 mm | - | 9 W/m² | - |
* Rain latest hour (hover to see other rain measurements)
** Current wind speed in m/s (hover to see current wind gust speed)